Regional Weather Roundup
Issued by NWS

Home | Current Version | Previous Version | Graphics & Text | Print | Product List | Glossary Off
Versions: 1 2 3 4 5 6 7 8 9 10 11 12 13 14 15 16 17 18 19 20 21 22 23 24 25 26 27 28 29 30 31 32 33 34 35 36 37 38 39 40 41 42 43 44 45 46 47 48 49 50

000
ASUS43 KIND 191809
RWRIN

WEATHER ROUNDUP FOR INDIANA
NATIONAL WEATHER SERVICE INDIANAPOLIS IN
200 PM EDT FRI SEP 19 2014

NOTE: "FAIR" INDICATES FEW OR NO CLOUDS BELOW 12,000 FEET WITH NO
SIGNIFICANT WEATHER AND/OR OBSTRUCTIONS TO VISIBILITY.

* - STATION DOES NOT REPORT WEATHER SUCH AS PRECIPITATION OR FOG.

+ - STATION NOT QUALITY CONTROLLED BY THE NATIONAL WEATHER SERVICE.
    USE DATA WITH CAUTION...ESPECIALLY DEWPOINT AND RELATIVE
    HUMIDITY OBSERVATIONS.

INZ001>003-010>013-019-020-191900-
NORTHWEST INDIANA

CITY           SKY/WX    TMP DP  RH WIND       PRES   REMARKS
GARY /AIRPORT/ MOSUNNY   73  48  40 SE12      30.14F
KNOX *+        SUNNY     71  48  44 S10G18    30.15F
LA PORTE +     SUNNY     70  49  46 S8G17     30.15F
6HR MIN TEMP:  46; 6HR MAX TEMP:  70;

MICHIGAN CITY+ SUNNY     70  48  46 S9        30.15S
MONTICELLO +   SUNNY     71  48  44 E6G17     30.14F
RENSSELAER +   SUNNY     72  46  40 SE10G18   30.14F
VALPARAISO     SUNNY     71  48  43 S12G20    30.15F
6HR MIN TEMP:  47; 6HR MAX TEMP:  71;


$$

LMZ046-743>745-191900-
SOUTHERN LAKE MICHIGAN

STATION/POSITION TIME  TEMP WIND        PRES
                       AIR  DIR/SP/G
                 (UTC) (F)  (DEG/KT/KT) (MB)
MICHIGAN CITY    1800   68  150/ 12/ 18   N/A

$$

INZ004-005-014>016-021>024-191900-
NORTH CENTRAL INDIANA

CITY           SKY/WX    TMP DP  RH WIND       PRES   REMARKS
ELKHART        MOSUNNY   68  52  56 SE9       30.17F
GOSHEN         MOSUNNY   69  52  54 SE6       30.17F
6HR MIN TEMP:  51; 6HR MAX TEMP:  70;

LOGANSPORT +   SUNNY     70  43  37 SE7       30.17S
PERU/GRISSOM   SUNNY     71  50  47 SE12      30.16F
6HR MIN TEMP:  50; 6HR MAX TEMP:  71;

ROCHESTER +    MOSUNNY   72  50  46 SE9       30.17F
SOUTH BEND     MOSUNNY   71  50  47 S12       30.15F
6HR MIN TEMP:  51; 6HR MAX TEMP:  71;

WARSAW +       MOSUNNY   68  50  52 S6        30.19R

$$

INZ006>009-017-018-025>027-191900-
NORTHEAST INDIANA

CITY           SKY/WX    TMP DP  RH WIND       PRES   REMARKS
ANGOLA *+      SUNNY     70  50  49 SE7       30.18F
AUBURN +       SUNNY     70  46  43 SE3G16    30.19F
FORT WAYNE     MOSUNNY   68  49  50 SE9       30.18F
6HR MIN TEMP:  48; 6HR MAX TEMP:  68;

HUNTINGTON +   SUNNY     68  51  53 SE7       30.17F
6HR MIN TEMP:  50; 6HR MAX TEMP:  68;


$$

INZ028-029-035-036-043>045-051>053-191900-
WEST CENTRAL INDIANA

CITY           SKY/WX    TMP DP  RH WIND       PRES   REMARKS
GREENCASTLE +  SUNNY     70  50  49 SE13G18   30.15F
LAFAYETTE      SUNNY     71  46  40 VRB7      30.14F
6HR MIN TEMP:  49; 6HR MAX TEMP:  71;

TERRE HAUTE    SUNNY     73  51  46 S8        30.14F
6HR MIN TEMP:  46; 6HR MAX TEMP:  73;


$$

INZ030>032-037>040-046>048-054>057-064-065-191900-
CENTRAL INDIANA

CITY           SKY/WX    TMP DP  RH WIND       PRES   REMARKS
ANDERSON       SUNNY     72  41  33 E12G17    30.18
CP ATTERBURY + SUNNY     72  48  43 SE9       30.15F
COLUMBUS       SUNNY     72  46  40 MISG      30.15F
FRANKFORT +    SUNNY     73  46  37 E8G17     30.17S
GREENWOOD *+   SUNNY     73  50  43 E8        30.15
INDIANAPOLIS   MOSUNNY   71  46  40 SE12      30.14F
6HR MIN TEMP:  54; 6HR MAX TEMP:  71;

-EAGLE CREEK   SUNNY     72  46  39 SE10      30.15F
6HR MIN TEMP:  52; 6HR MAX TEMP:  72;

KOKOMO *+      SUNNY     70  48  46 SE13      30.16F
MARION +       SUNNY     70  46  41 E10G16    30.17F
MT COMFORT *+  SUNNY     72  30  21 SE13      30.16F
SHELBYVILLE    SUNNY     75  48  38 SE10      30.14F
6HR MIN TEMP:  50; 6HR MAX TEMP:  75;

ZIONSVILLE +   SUNNY     71  43  36 E12       30.16F
6HR MIN TEMP:  47; 6HR MAX TEMP:  71;


$$

INZ033-034-041-042-049-050-058-059-191900-
EAST CENTRAL INDIANA

CITY           SKY/WX    TMP DP  RH WIND       PRES   REMARKS
MUNCIE         SUNNY     71  40  32 E10       30.16F
6HR MIN TEMP:  47; 6HR MAX TEMP:  71;


$$

INZ060-061-067>069-081>083-085>088-191900-
SOUTHWEST INDIANA

CITY           SKY/WX    TMP DP  RH WIND       PRES   REMARKS
EVANSVILLE     SUNNY     76  53  44 E8        30.10F
6HR MIN TEMP:  55; 6HR MAX TEMP:  76;

WASHINGTON +   SUNNY     74  53  47 SE10      30.12S
6HR MIN TEMP:  49; 6HR MAX TEMP:  75;


$$

INZ062-063-066-070>080-084-089>092-191900-
SOUTH CENTRAL AND SOUTHEAST INDIANA

CITY           SKY/WX    TMP DP  RH WIND       PRES   REMARKS
BLOOMINGTON    SUNNY     72  51  47 E9        30.15F
6HR MIN TEMP:  47; 6HR MAX TEMP:  72;

NORTH VERNON + SUNNY     73  46  38 SE9       30.15
SEYMOUR +      SUNNY     75  50  41 E9        30.13

$$



USA.gov is the U.S. government's official web portal to all federal, state and local government web resources and services.